KCIKMI Weather Reports


Display with metric or nautical units.
time (UTC)temp
F
wind
direction
speed
MPH
gust
MPH
rain 1hr
in
rain 24hr
in
rain mn
in
humidity
%
barometer
mb
20260510185548 69 236 2.0 5.0 0.00 0.43 0.00 73 1010.5
20260510185048 69 197 0.0 5.0 0.00 0.43 0.00 73 1010.5
20260510184546 68 190 1.0 5.0 0.00 0.43 0.00 74 1010.4
20260510184046 68 193 2.0 4.0 0.00 0.43 0.00 74 1010.5
20260510183547 68 188 1.0 4.0 0.00 0.43 0.00 73 1010.5
20260510183053 68 209 1.0 3.0 0.00 0.43 0.00 75 1010.4
20260510182543 68 229 0.0 3.0 0.00 0.43 0.00 75 1010.5
20260510182043 68 204 1.0 3.0 0.00 0.43 0.00 75 1010.6
20260510181544 67 190 0.0 6.0 0.00 0.43 0.00 76 1010.6
20260510181043 68 161 0.0 6.0 0.00 0.43 0.00 75 1010.6
20260510180541 67 209 0.0 5.0 0.00 0.43 0.00 76 1010.7
20260510180042 67 190 0.0 5.0 0.00 0.43 0.00 77 1010.9
20260510175541 66 212 1.0 5.0 0.00 0.43 0.00 76 1010.9
20260510175038 67 212 1.0 5.0 0.00 0.43 0.00 76 1011.1
20260510174540 67 230 1.0 5.0 0.00 0.43 0.00 76 1011.1
20260510174035 66 198 1.0 5.0 0.00 0.43 0.00 76 1011.2
20260510173535 67 202 0.0 4.0 0.00 0.43 0.00 76 1011.3
20260510173034 67 228 1.0 4.0 0.00 0.43 0.00 77 1011.3
20260510172534 66 193 0.0 4.0 0.00 0.43 0.00 78 1011.3
20260510172033 66 209 1.0 5.0 0.00 0.43 0.00 78 1011.3
20260510171534 66 214 1.0 5.0 0.00 0.43 0.00 78 1011.3
20260510171031 66 205 1.0 5.0 0.00 0.43 0.00 78 1011.2
20260510170530 65 212 1.0 5.0 0.00 0.43 0.00 79 1011.2
20260510170029 66 247 2.0 5.0 0.00 0.43 0.00 78 1011.3
20260510165528 66 201 0.0 2.0 0.00 0.43 0.00 80 1011.3
20260510165026 65 193 0.0 3.0 0.00 0.43 0.00 82 1011.2
20260510164526 65 204 0.0 3.0 0.00 0.43 0.00 81 1011.2
20260510164030 64 185 0.0 4.0 0.00 0.43 0.00 83 1011.3
20260510163526 64 195 1.0 5.0 0.00 0.43 0.00 81 1011.4
20260510163026 64 189 0.0 5.0 0.00 0.43 0.00 81 1011.3
20260510162526 64 180 0.0 3.0 0.00 0.43 0.00 82 1011.4
20260510162025 64 164 0.0 3.0 0.00 0.43 0.00 82 1011.4
20260510161525 64 192 0.0 5.0 0.00 0.43 0.00 81 1011.5
20260510161025 64 192 1.0 5.0 0.00 0.43 0.00 80 1011.6
20260510160525 65 188 1.0 4.0 0.00 0.43 0.00 80 1011.6
20260510160028 65 225 0.0 1.0 0.00 0.43 0.00 80 1011.5
20260510155524 65 207 0.0 1.0 0.00 0.43 0.00 80 1011.5
20260510155024 65 220 0.0 0.0 0.00 0.43 0.00 81 1011.4
20260510154524 65 204 0.0 0.0 0.00 0.43 0.00 81 1011.4
20260510154023 65 232 0.0 0.0 0.00 0.43 0.00 82 1011.4
20260510153521 64 194 0.0 1.0 0.00 0.43 0.00 82 1011.3
20260510153033 64 219 0.0 1.0 0.00 0.43 0.00 82 1011.3
20260510152520 64 221 0.0 1.0 0.00 0.43 0.00 82 1011.5
20260510152019 64 206 0.0 1.0 0.00 0.43 0.00 84 1011.5
20260510151518 63 203 0.0 1.0 0.00 0.43 0.00 83 1011.6
20260510151019 64 178 0.0 2.0 0.00 0.43 0.00 84 1011.7
20260510150517 64 198 0.0 2.0 0.00 0.43 0.00 83 1011.7
20260510150019 64 193 0.0 1.0 0.00 0.43 0.00 83 1011.8
20260510145515 63 192 0.0 1.0 0.00 0.43 0.00 85 1011.8
20260510145014 63 200 0.0 2.0 0.00 0.43 0.00 84 1011.8
20260510144526 62 195 0.0 2.0 0.00 0.43 0.00 85 1011.9
20260510144014 62 188 0.0 3.0 0.00 0.43 0.00 86 1011.8
20260510143516 61 195 0.0 3.0 0.00 0.43 0.00 88 1011.8
20260510143010 61 193 0.0 0.0 0.00 0.43 0.00 88 1011.9
20260510142509 60 204 0.0 0.0 0.00 0.43 0.00 89 1011.9
20260510142012 60 203 0.0 0.0 0.00 0.43 0.00 89 1011.9
20260510141512 60 203 0.0 0.0 0.00 0.43 0.00 90 1011.8
20260510141006 59 203 0.0 0.0 0.00 0.43 0.00 90 1011.8
20260510140504 59 172 0.0 0.0 0.00 0.43 0.00 91 1011.9
20260510140004 58 188 0.0 0.0 0.00 0.43 0.00 91 1011.9
20260510135504 58 188 0.0 0.0 0.00 0.43 0.00 92 1011.9
20260510135001 58 202 0.0 0.0 0.00 0.43 0.00 92 1012.1
20260510134607 57 199 0.0 0.0 0.00 0.43 0.00 92 1012.1
20260510134102 57 211 0.0 0.0 0.00 0.43 0.00 92 1012.0
20260510133559 57 204 0.0 0.0 0.00 0.43 0.00 92 1011.9
20260510133116 57 208 0.0 0.0 0.00 0.43 0.00 92 1012.0
20260510132558 57 205 0.0 0.0 0.00 0.43 0.00 92 1011.9
20260510132101 57 207 0.0 0.0 0.00 0.43 0.00 92 1011.9
20260510131604 57 186 0.0 3.0 0.00 0.43 0.00 92 1011.8
20260510131056 57 176 0.0 5.0 0.00 0.43 0.00 92 1011.7
20260510130556 57 176 0.0 5.0 0.00 0.43 0.00 91 1011.6
20260510130055 57 189 0.0 2.0 0.00 0.43 0.00 91 1011.2
20260510125555 57 191 0.0 4.0 0.00 0.43 0.00 92 1011.1
20260510125054 57 241 0.0 4.0 0.00 0.43 0.00 91 1011.1
20260510124558 58 164 0.0 1.0 0.00 0.43 0.00 92 1010.9
20260510124053 58 190 0.0 0.0 0.00 0.43 0.00 93 1010.9
20260510123552 57 199 0.0 0.0 0.00 0.43 0.00 93 1010.8
20260510123100 57 218 0.0 0.0 0.00 0.43 0.00 94 1010.6
20260510122550 57 211 0.0 0.0 0.00 0.43 0.00 94 1010.7
20260510122049 56 217 0.0 0.0 0.00 0.43 0.00 95 1010.8
20260510121549 56 198 0.0 0.0 0.00 0.43 0.00 94 1011.0
20260510121048 56 215 0.0 0.0 0.00 0.43 0.00 95 1011.2
20260510120547 56 187 0.0 0.0 0.00 0.43 0.00 95 1011.3
20260510120047 55 189 0.0 0.0 0.00 0.43 0.00 95 1011.3
20260510115550 55 195 0.0 0.0 0.00 0.45 0.00 95 1011.3
20260510115046 55 196 0.0 0.0 0.00 0.45 0.00 95 1011.4
20260510114546 55 196 0.0 0.0 0.00 0.45 0.00 95 1011.4
20260510114045 55 196 0.0 0.0 0.00 0.45 0.00 95 1011.3
20260510113545 55 197 0.0 0.0 0.00 0.45 0.00 95 1011.4
20260510113046 55 190 0.0 0.0 0.00 0.45 0.00 95 1011.3
20260510112545 55 194 0.0 0.0 0.00 0.45 0.00 95 1011.3
20260510112045 55 194 0.0 0.0 0.00 0.45 0.00 95 1011.3
20260510111545 55 192 0.0 1.0 0.00 0.45 0.00 95 1011.2
20260510111044 55 192 0.0 1.0 0.00 0.45 0.00 95 1011.2
20260510110543 55 196 0.0 0.0 0.00 0.45 0.00 95 1011.2
20260510110047 55 197 0.0 0.0 0.00 0.45 0.00 96 1011.2
20260510105543 55 197 0.0 0.0 0.00 0.46 0.00 96 1011.2
20260510105042 54 197 0.0 0.0 0.00 0.46 0.00 95 1011.2
20260510104542 54 197 0.0 0.0 0.00 0.46 0.00 96 1011.3
20260510104041 54 197 0.0 0.0 0.00 0.46 0.00 96 1011.5
20260510103541 54 197 0.0 0.0 0.00 0.46 0.00 96 1011.4
20260510103043 54 197 0.0 0.0 0.00 0.46 0.00 96 1011.2
20260510102541 54 197 0.0 0.0 0.00 0.46 0.00 95 1011.3
20260510102040 54 197 0.0 0.0 0.00 0.46 0.00 95 1011.2
20260510101540 54 197 0.0 0.0 0.00 0.46 0.00 95 1011.1
20260510101039 54 197 0.0 0.0 0.00 0.46 0.00 95 1011.0
20260510100541 54 197 0.0 0.0 0.00 0.46 0.00 95 1011.1
20260510100038 54 197 0.0 0.0 0.00 0.46 0.00 95 1011.2
20260510095538 54 197 0.0 0.0 0.00 0.46 0.00 95 1011.1
20260510095038 54 197 0.0 0.0 0.00 0.46 0.00 95 1011.1
20260510094538 54 197 0.0 0.0 0.00 0.46 0.00 95 1011.1
20260510094037 54 197 0.0 0.0 0.00 0.46 0.00 95 1011.0
20260510093536 54 197 0.0 0.0 0.00 0.46 0.00 95 1010.9
20260510093036 54 197 0.0 0.0 0.00 0.46 0.00 95 1010.8
20260510092538 54 197 0.0 0.0 0.00 0.46 0.00 95 1010.7
20260510092035 54 197 0.0 0.0 0.00 0.46 0.00 95 1010.5
20260510091534 54 197 0.0 0.0 0.00 0.46 0.00 95 1010.6
20260510091034 54 197 0.0 0.0 0.00 0.46 0.00 95 1010.5
20260510090534 54 197 0.0 0.0 0.00 0.46 0.00 95 1010.5
20260510090033 54 197 0.0 0.0 0.00 0.46 0.00 95 1010.5
20260510085535 54 197 0.0 0.0 0.00 0.46 0.00 95 1010.4
20260510085033 54 197 0.0 0.0 0.00 0.46 0.00 95 1010.4
20260510084534 54 197 0.0 0.0 0.00 0.46 0.00 95 1010.4
20260510084033 54 197 0.0 0.0 0.00 0.46 0.00 95 1010.5
20260510083535 54 197 0.0 0.0 0.00 0.46 0.00 95 1010.6
20260510083032 54 197 0.0 0.0 0.00 0.46 0.00 95 1010.6
20260510082531 54 197 0.0 0.0 0.00 0.46 0.00 95 1010.6
20260510082031 54 197 0.0 0.0 0.00 0.46 0.00 95 1010.5
20260510081538 54 197 0.0 0.0 0.00 0.46 0.00 95 1010.5
20260510081032 53 197 0.0 0.0 0.00 0.46 0.00 95 1010.5
20260510080532 53 197 0.0 0.0 0.00 0.46 0.00 95 1010.5
20260510080031 53 197 0.0 0.0 0.00 0.46 0.00 95 1010.5
20260510075530 53 197 0.0 0.0 0.00 0.46 0.00 95 1010.5
20260510075030 53 197 0.0 0.0 0.00 0.46 0.00 95 1010.6
20260510074530 53 197 0.0 0.0 0.00 0.46 0.00 95 1010.6
20260510074032 53 197 0.0 0.0 0.00 0.46 0.00 95 1010.6
20260510073528 53 197 0.0 0.0 0.00 0.46 0.00 95 1010.4
20260510073033 53 197 0.0 0.0 0.00 0.46 0.00 95 1010.3
20260510072527 53 197 0.0 0.0 0.00 0.46 0.00 95 1010.2
20260510072027 53 197 0.0 0.0 0.00 0.46 0.00 95 1010.2
20260510071527 53 197 0.0 0.0 0.00 0.46 0.00 94 1010.1
20260510071026 53 197 0.0 0.0 0.00 0.46 0.00 94 1010.1
20260510070526 53 197 0.0 0.0 0.00 0.46 0.00 94 1010.0
20260510070026 53 197 0.0 0.0 0.00 0.46 0.00 94 1010.0
20260510065526 53 197 0.0 0.0 0.00 0.46 0.00 94 1010.0
20260510065027 53 197 0.0 0.0 0.00 0.46 0.00 94 1010.0
20260510064529 53 197 0.0 0.0 0.00 0.46 0.00 94 1010.0
20260510064025 53 203 0.0 0.0 0.00 0.46 0.00 94 1010.0
20260510063525 53 202 0.0 0.0 0.00 0.46 0.00 94 1010.0
20260510063034 53 202 0.0 0.0 0.00 0.46 0.00 94 1010.1
20260510062525 53 202 0.0 0.0 0.00 0.46 0.00 94 1010.1
20260510062025 53 202 0.0 0.0 0.00 0.46 0.00 94 1010.1
20260510061525 53 202 0.0 0.0 0.00 0.46 0.00 94 1010.1
20260510061025 53 203 0.0 1.0 0.00 0.46 0.00 94 1010.1
20260510060525 53 204 0.0 1.0 0.00 0.46 0.00 94 1010.1
20260510060025 53 218 0.0 2.0 0.00 0.46 0.00 94 1010.2
20260510055523 53 223 0.0 2.0 0.00 0.46 0.00 94 1010.2
20260510055023 53 192 0.0 1.0 0.00 0.46 0.00 94 1010.2
20260510054624 53 191 0.0 1.0 0.00 0.46 0.00 94 1010.2
20260510054026 53 168 0.0 1.0 0.00 0.46 0.00 94 1010.1
20260510053523 53 204 0.0 1.0 0.00 0.46 0.00 94 1010.0
20260510053023 53 190 0.0 1.0 0.00 0.46 0.00 93 1010.0
20260510052522 53 190 0.0 1.0 0.00 0.46 0.00 93 1010.2
20260510052022 53 202 0.0 1.0 0.00 0.46 0.00 93 1010.1
20260510051527 53 201 0.0 0.0 0.00 0.46 0.00 93 1010.0
20260510051022 53 201 0.0 0.0 0.00 0.46 0.00 93 1010.0
20260510050523 53 201 0.0 0.0 0.00 0.46 0.00 93 1010.0
20260510050021 53 201 0.0 2.0 0.00 0.46 0.00 93 1010.0
20260510045521 53 202 0.0 2.0 0.00 0.46 0.00 93 1010.0
20260510045021 53 165 0.0 0.0 0.00 0.46 0.00 93 1010.1
20260510044520 53 165 0.0 1.0 0.00 0.46 0.00 93 1010.1
20260510044020 53 165 0.0 1.0 0.00 0.46 0.00 93 1010.1
20260510043519 53 178 0.0 2.0 0.00 0.46 0.00 93 1010.0
20260510043020 53 176 0.0 2.0 0.00 0.46 0.00 93 1010.0
20260510042519 53 200 0.0 2.0 0.00 0.46 0.00 93 1010.1
20260510042017 53 199 0.0 0.0 0.00 0.46 0.00 93 1010.1
20260510041515 53 182 0.0 0.0 0.00 0.46 0.00 93 1010.1
20260510041015 53 182 0.0 0.0 0.00 0.46 0.00 93 1010.1
20260510040513 53 182 0.0 0.0 0.00 0.46 0.00 94 1010.2
20260510040015 53 182 0.0 0.0 0.00 0.46 0.46 94 1010.2
20260510035513 53 182 0.0 0.0 0.00 0.46 0.46 94 1010.1
20260510035013 53 182 0.0 0.0 0.00 0.46 0.46 94 1010.1
20260510034511 53 182 0.0 0.0 0.00 0.46 0.46 94 1010.1
20260510034011 53 182 0.0 0.0 0.00 0.46 0.46 94 1010.3
20260510033511 53 182 0.0 0.0 0.00 0.46 0.46 94 1010.3
20260510033012 53 182 0.0 0.0 0.00 0.46 0.46 94 1010.4
20260510032510 53 182 0.0 0.0 0.00 0.46 0.46 94 1010.3
20260510032010 53 182 0.0 0.0 0.00 0.46 0.46 94 1010.2
20260510031516 53 182 0.0 0.0 0.00 0.46 0.46 94 1010.3
20260510031010 53 182 0.0 0.0 0.00 0.46 0.46 94 1010.4
20260510030514 53 182 0.0 0.0 0.00 0.46 0.46 94 1010.5
20260510030012 53 182 0.0 0.0 0.00 0.46 0.46 94 1010.6
20260510025510 53 182 0.0 0.0 0.02 0.46 0.46 94 1010.6
20260510025009 53 182 0.0 0.0 0.03 0.46 0.46 93 1010.7
20260510024512 53 182 0.0 0.0 0.04 0.46 0.46 93 1010.7
20260510024013 53 182 0.0 0.0 0.04 0.46 0.46 93 1010.7
20260510023508 53 182 0.0 0.0 0.04 0.46 0.46 93 1010.7
20260510023008 53 182 0.0 0.0 0.05 0.46 0.46 93 1010.7
20260510022508 53 182 0.0 0.0 0.06 0.46 0.46 93 1010.8
20260510022108 53 182 0.0 0.0 0.06 0.46 0.46 93 1010.8
20260510021516 53 182 0.0 0.0 0.06 0.46 0.46 93 1010.8
20260510021010 53 182 0.0 0.0 0.06 0.46 0.46 93 1010.8
20260510020507 53 182 0.0 0.0 0.06 0.46 0.46 93 1010.9
20260510020007 53 182 0.0 0.0 0.05 0.45 0.45 93 1011.0
20260510015507 53 182 0.0 0.0 0.04 0.44 0.44 93 1011.0
20260510015010 53 182 0.0 0.0 0.03 0.43 0.43 92 1011.1
20260510014508 53 182 0.0 0.0 0.02 0.42 0.42 92 1011.1
20260510014006 53 182 0.0 0.0 0.02 0.42 0.42 92 1011.2
20260510013506 53 182 0.0 0.0 0.02 0.42 0.42 92 1011.2
20260510013006 53 182 0.0 0.0 0.01 0.41 0.41 92 1011.3
20260510012505 53 182 0.0 0.0 0.00 0.40 0.40 92 1011.4
20260510012005 53 182 0.0 0.0 0.00 0.40 0.40 91 1011.5
20260510011506 53 182 0.0 0.0 0.00 0.40 0.40 91 1011.4
20260510011007 53 182 0.0 0.0 0.00 0.40 0.40 91 1011.4
20260510010505 53 181 0.0 0.0 0.00 0.40 0.40 91 1011.4
20260510010006 53 182 0.0 0.0 0.00 0.40 0.40 91 1011.3
20260510005504 53 182 0.0 0.0 0.00 0.40 0.40 91 1011.2
20260510005004 53 181 0.0 0.0 0.00 0.40 0.40 90 1011.3
20260510004504 53 179 0.0 0.0 0.00 0.40 0.40 90 1011.3
20260510004007 53 179 0.0 0.0 0.00 0.40 0.40 90 1011.3
20260510003504 53 179 0.0 0.0 0.00 0.40 0.40 90 1011.4
20260510003004 53 179 0.0 0.0 0.00 0.40 0.40 90 1011.4
20260510002503 53 199 0.0 0.0 0.00 0.40 0.40 89 1011.4
20260510002103 53 199 0.0 0.0 0.01 0.40 0.40 90 1011.3
20260510001503 54 199 0.0 0.0 0.01 0.40 0.40 89 1011.4
20260510001003 54 199 0.0 0.0 0.01 0.40 0.40 89 1011.4
20260510000502 54 199 0.0 5.0 0.01 0.40 0.40 89 1011.3
20260510000006 54 214 0.0 5.0 0.01 0.40 0.40 89 1011.3
20260509235502 54 199 0.0 2.0 0.01 0.40 0.40 89 1011.3
20260509235004 55 188 0.0 2.0 0.01 0.40 0.40 89 1011.3
20260509234502 55 192 0.0 4.0 0.02 0.40 0.40 90 1011.3
20260509234002 55 203 0.0 4.0 0.02 0.40 0.40 90 1011.3
20260509233501 55 188 0.0 3.0 0.02 0.40 0.40 91 1011.4
20260509233002 55 207 0.0 4.0 0.02 0.40 0.40 91 1011.4
20260509232502 55 228 1.0 4.0 0.03 0.40 0.40 91 1011.4
20260509232002 55 199 0.0 2.0 0.02 0.39 0.39 92 1011.4
20260509231501 55 202 0.0 2.0 0.02 0.39 0.39 92 1011.4
20260509231001 55 204 0.0 2.0 0.02 0.39 0.39 92 1011.5
20260509230502 55 202 0.0 2.0 0.02 0.39 0.39 92 1011.5
20260509230001 56 201 0.0 2.0 0.02 0.39 0.39 92 1011.5
20260509225601 56 207 0.0 0.0 0.03 0.39 0.39 92 1011.4
20260509225100 56 207 0.0 0.0 0.04 0.39 0.39 92 1011.4
20260509224605 56 195 0.0 2.0 0.07 0.38 0.38 92 1011.4
20260509224100 56 197 0.0 2.0 0.11 0.38 0.38 92 1011.3
20260509223600 56 197 0.0 2.0 0.14 0.38 0.38 92 1011.3
20260509223107 56 187 0.0 1.0 0.16 0.38 0.38 92 1011.2
20260509222603 56 189 0.0 2.0 0.17 0.37 0.37 92 1011.2
20260509222100 56 195 0.0 2.0 0.20 0.37 0.37 92 1011.2
20260509221607 56 203 0.0 2.0 0.22 0.37 0.37 92 1011.2
20260509221059 56 211 0.0 2.0 0.25 0.37 0.37 92 1011.2
20260509220602 56 200 0.0 1.0 0.27 0.37 0.37 92 1011.2
20260509220100 56 189 0.0 2.0 0.28 0.37 0.37 92 1011.2
20260509215559 56 193 0.0 3.0 0.27 0.36 0.36 92 1011.2
20260509215059 56 202 0.0 3.0 0.27 0.35 0.35 92 1011.1
20260509214607 56 202 0.0 3.0 0.23 0.31 0.31 91 1011.0
20260509214057 56 195 0.0 2.0 0.19 0.27 0.27 91 1010.9
20260509213559 56 178 0.0 2.0 0.16 0.24 0.24 91 1010.9
20260509213058 56 218 0.0 2.0 0.14 0.22 0.22 90 1010.8
20260509212657 57 223 0.0 2.0 0.12 0.20 0.20 90 1010.8
20260509212059 57 202 0.0 2.0 0.10 0.17 0.17 90 1010.8
20260509211600 57 207 0.0 3.0 0.08 0.14 0.14 89 1010.7
20260509211101 57 188 0.0 4.0 0.06 0.11 0.11 89 1010.7
20260509210557 57 189 0.0 4.0 0.06 0.10 0.10 89 1010.8
20260509210114 57 190 1.0 6.0 0.06 0.09 0.09 88 1010.7
20260509205555 57 192 0.0 6.0 0.06 0.09 0.09 89 1010.7
20260509205055 57 166 0.0 4.0 0.05 0.08 0.08 89 1010.8
20260509204559 57 189 1.0 6.0 0.05 0.08 0.08 88 1010.9
20260509204055 57 197 1.0 6.0 0.05 0.08 0.08 88 1010.6
20260509203555 57 214 1.0 5.0 0.05 0.08 0.08 88 1010.4
20260509203055 58 203 1.0 4.0 0.05 0.08 0.08 87 1010.3
20260509202555 58 199 1.0 5.0 0.04 0.07 0.07 86 1010.3
20260509202055 58 233 1.0 6.0 0.04 0.07 0.07 85 1010.3
20260509201600 59 206 2.0 11.0 0.03 0.06 0.06 84 1010.2
20260509201053 59 204 4.0 11.0 0.02 0.05 0.05 82 1010.3
20260509200553 60 222 4.0 11.0 0.00 0.03 0.03 80 1010.6
20260509195552 61 202 1.0 8.0 0.00 0.03 0.03 76 1010.2
20260509195051 61 190 2.0 8.0 0.00 0.03 0.03 75 1010.4
20260509194552 62 197 2.0 8.0 0.00 0.03 0.03 75 1010.3
20260509194051 62 183 2.0 6.0 0.00 0.03 0.03 74 1010.3
20260509193551 62 194 1.0 6.0 0.00 0.03 0.03 73 1010.2
20260509193151 62 188 2.0 6.0 0.00 0.03 0.03 72 1010.4
20260509192553 62 228 0.0 4.0 0.00 0.03 0.03 72 1010.4
20260509192050 62 218 1.0 7.0 0.00 0.03 0.03 71 1010.4
20260509191550 62 218 1.0 7.0 0.00 0.03 0.03 69 1010.4
20260509191050 63 204 1.0 6.0 0.00 0.03 0.03 68 1010.4
20260509190550 63 195 1.0 8.0 0.00 0.03 0.03 68 1010.4